TimeCST,TemperatureF,Dew PointF,Humidity,Sea Level PressureIn,VisibilityMPH,Wind Direction,Wind SpeedMPH,Gust SpeedMPH,PrecipitationIn,Events,Conditions,WindDirDegrees,DateUTC
12:52 AM,46.0,44.1,93,29.80,7.0,SSW,13.8,24.2,0.01,,Overcast,200,2013-01-28 06:52:00
12:59 AM,46.4,44.6,93,29.79,7.0,SSW,13.8,-,N/A,,Overcast,200,2013-01-28 06:59:00
1:08 AM,46.4,44.6,93,29.79,7.0,SSW,16.1,-,N/A,,Overcast,200,2013-01-28 07:08:00
1:52 AM,48.0,46.0,93,29.80,8.0,SSW,15.0,24.2,0.02,,Overcast,200,2013-01-28 07:52:00
2:30 AM,48.2,46.4,93,29.78,9.0,SSW,13.8,21.9,0.01,,Overcast,200,2013-01-28 08:30:00
2:52 AM,48.9,46.0,90,29.80,9.0,SSW,16.1,-,0.01,,Overcast,210,2013-01-28 08:52:00
3:52 AM,48.0,46.9,96,29.81,3.0,SW,10.4,-,0.01,Rain,Light Rain,220,2013-01-28 09:52:00
4:36 AM,48.2,48.2,100,29.80,4.0,SW,12.7,-,0.00,,Overcast,220,2013-01-28 10:36:00
4:52 AM,48.9,48.0,97,29.82,4.0,WSW,11.5,-,0.01,,Overcast,240,2013-01-28 10:52:00
5:00 AM,48.2,48.2,100,29.81,3.0,WSW,10.4,-,N/A,,Overcast,240,2013-01-28 11:00:00
5:11 AM,48.2,48.2,100,29.82,2.5,WSW,10.4,-,N/A,,Overcast,250,2013-01-28 11:11:00
5:26 AM,48.2,46.4,93,29.82,2.5,WSW,9.2,-,N/A,,Overcast,250,2013-01-28 11:26:00
5:52 AM,48.0,46.9,96,29.85,2.0,WSW,9.2,-,0.01,,Overcast,250,2013-01-28 11:52:00
6:52 AM,46.9,46.0,97,29.88,2.0,West,11.5,-,N/A,,Overcast,270,2013-01-28 12:52:00
7:04 AM,46.4,44.6,93,29.87,2.0,West,11.5,-,N/A,,Overcast,270,2013-01-28 13:04:00
7:27 AM,44.6,42.8,93,29.89,0.5,WNW,10.4,-,N/A,Fog,Fog,300,2013-01-28 13:27:00
7:34 AM,42.8,42.8,100,29.89,1.5,NW,9.2,-,N/A,,Overcast,310,2013-01-28 13:34:00
7:52 AM,43.0,42.1,97,29.91,1.5,WNW,8.1,-,N/A,,Overcast,300,2013-01-28 13:52:00
8:50 AM,39.2,39.2,100,29.92,0.8,NNW,10.4,-,N/A,,Overcast,330,2013-01-28 14:50:00
8:52 AM,39.9,39.0,97,29.93,0.8,NNW,9.2,-,N/A,,Overcast,330,2013-01-28 14:52:00
9:52 AM,39.9,39.0,97,29.94,0.5,Calm,Calm,-,N/A,Fog,Fog,0,2013-01-28 15:52:00
10:43 AM,39.2,39.2,100,29.94,1.0,NW,3.5,-,N/A,,Overcast,310,2013-01-28 16:43:00
10:52 AM,39.9,39.0,97,29.96,1.5,Calm,Calm,-,N/A,,Overcast,0,2013-01-28 16:52:00
11:08 AM,41.0,39.2,93,29.94,2.0,Calm,Calm,-,N/A,,Overcast,0,2013-01-28 17:08:00
11:52 AM,41.0,39.0,93,29.94,2.0,East,3.5,-,N/A,,Overcast,80,2013-01-28 17:52:00
12:52 PM,42.1,39.0,89,29.92,2.0,ENE,3.5,-,N/A,,Overcast,60,2013-01-28 18:52:00
1:52 PM,42.1,39.9,92,29.90,2.0,ENE,6.9,-,N/A,,Overcast,70,2013-01-28 19:52:00
2:52 PM,42.1,39.9,92,29.89,2.0,East,10.4,-,N/A,,Overcast,90,2013-01-28 20:52:00
3:52 PM,41.0,39.2,93,29.87,2.0,ENE,10.4,-,N/A,,Overcast,70,2013-01-28 21:52:00
3:59 PM,41.0,39.2,93,29.88,1.5,East,10.4,-,N/A,,Overcast,80,2013-01-28 21:59:00
4:52 PM,41.0,39.0,93,29.88,1.5,East,8.1,-,N/A,,Overcast,90,2013-01-28 22:52:00
5:52 PM,41.0,39.0,93,29.87,2.0,East,9.2,-,N/A,,Overcast,80,2013-01-28 23:52:00
6:52 PM,39.9,39.9,100,29.86,2.0,East,8.1,-,N/A,,Overcast,90,2013-01-29 00:52:00
6:59 PM,39.2,39.2,100,29.84,0.8,East,8.1,-,N/A,,Overcast,80,2013-01-29 00:59:00
7:52 PM,39.9,39.9,100,29.84,0.5,East,6.9,-,N/A,Fog,Fog,90,2013-01-29 01:52:00
8:52 PM,41.0,41.0,100,29.81,0.8,East,8.1,-,N/A,,Mist,100,2013-01-29 02:52:00
9:15 PM,42.8,41.0,93,29.78,0.2,East,9.2,-,N/A,Fog,Fog,100,2013-01-29 03:15:00
9:40 PM,42.8,42.8,100,29.76,0.2,East,9.2,-,0.00,Fog,Fog,90,2013-01-29 03:40:00
9:52 PM,42.1,42.1,100,29.76,0.2,East,9.2,-,0.00,Fog,Fog,90,2013-01-29 03:52:00
10:20 PM,44.6,42.8,93,29.72,0.2,East,5.8,-,0.02,Fog-Rain,Light Rain,100,2013-01-29 04:20:00
10:33 PM,46.4,46.4,100,29.72,0.2,SE,5.8,-,N/A,Fog,Fog,130,2013-01-29 04:33:00
10:45 PM,48.2,48.2,100,29.70,0.5,SE,9.2,-,0.02,Fog,Fog,140,2013-01-29 04:45:00
10:52 PM,50.0,50.0,100,29.71,0.8,SSE,11.5,-,0.02,,Mist,160,2013-01-29 04:52:00
10:58 PM,50.0,50.0,100,29.70,1.5,SSE,9.2,-,N/A,,Overcast,150,2013-01-29 04:58:00
11:04 PM,51.8,51.8,100,29.70,3.0,SSE,9.2,-,N/A,,Mostly Cloudy,150,2013-01-29 05:04:00
11:16 PM,51.8,51.8,100,29.69,5.0,SSE,10.4,-,N/A,,Mostly Cloudy,160,2013-01-29 05:16:00
11:52 PM,55.9,54.0,93,29.68,10.0,South,13.8,21.9,0.01,,Partly Cloudy,190,2013-01-29 05:52:00